TimeMDT,TemperatureF,Dew PointF,Humidity,Sea Level PressureIn,VisibilityMPH,Wind Direction,Wind SpeedMPH,Gust SpeedMPH,PrecipitationIn,Events,Conditions,WindDirDegrees,DateUTC
12:55 AM,46.0,44.1,93,30.18,10.0,Calm,Calm,-,N/A,,Clear,0,2013-05-23 06:55:00
1:55 AM,42.1,41.0,96,30.18,10.0,Calm,Calm,-,N/A,,Clear,0,2013-05-23 07:55:00
2:55 AM,39.9,39.9,100,30.18,10.0,Calm,Calm,-,N/A,,Clear,0,2013-05-23 08:55:00
3:11 AM,39.2,39.2,100,30.18,2.5,WNW,4.6,-,N/A,,Clear,290,2013-05-23 09:11:00
3:21 AM,39.2,39.2,100,30.18,7.0,WNW,4.6,-,N/A,,Clear,290,2013-05-23 09:21:00
3:33 AM,39.2,39.2,100,30.18,9.0,WNW,3.5,-,N/A,,Scattered Clouds,290,2013-05-23 09:33:00
3:45 AM,39.2,39.2,100,30.18,7.0,WNW,3.5,-,N/A,,Mostly Cloudy,290,2013-05-23 09:45:00
3:55 AM,39.9,39.9,100,30.20,1.0,NW,3.5,-,N/A,,Mist,310,2013-05-23 09:55:00
4:02 AM,39.2,39.2,100,30.19,0.2,WNW,3.5,-,N/A,Fog,Fog,290,2013-05-23 10:02:00
4:19 AM,39.2,39.2,100,30.19,0.2,Calm,Calm,-,N/A,Fog,Fog,0,2013-05-23 10:19:00
4:52 AM,39.2,39.2,100,30.20,0.2,Calm,Calm,-,N/A,Fog,Fog,0,2013-05-23 10:52:00
4:55 AM,39.0,39.0,100,30.21,0.2,Calm,Calm,-,N/A,Fog,Fog,0,2013-05-23 10:55:00
5:55 AM,39.0,39.0,100,30.20,0.2,ENE,3.5,-,N/A,Fog,Fog,70,2013-05-23 11:55:00
6:55 AM,41.0,41.0,100,30.22,0.2,Calm,Calm,-,N/A,Fog,Fog,0,2013-05-23 12:55:00
7:55 AM,44.1,44.1,100,30.24,0.2,ESE,3.5,-,N/A,Fog,Fog,110,2013-05-23 13:55:00
8:55 AM,48.9,48.9,100,30.24,0.5,ENE,4.6,-,N/A,Fog,Fog,70,2013-05-23 14:55:00
9:03 AM,50.0,50.0,100,30.24,2.0,East,4.6,-,N/A,,Mostly Cloudy,80,2013-05-23 15:03:00
9:10 AM,51.8,50.0,94,30.24,10.0,East,3.5,-,N/A,,Mostly Cloudy,80,2013-05-23 15:10:00
9:18 AM,51.8,48.2,88,30.24,10.0,ESE,3.5,-,N/A,,Mostly Cloudy,110,2013-05-23 15:18:00
9:41 AM,57.2,46.4,67,30.23,10.0,SE,13.8,-,N/A,,Scattered Clouds,130,2013-05-23 15:41:00
9:55 AM,59.0,46.9,64,30.22,10.0,SE,18.4,-,N/A,,Partly Cloudy,140,2013-05-23 15:55:00
10:55 AM,61.0,46.0,58,30.20,10.0,SE,21.9,27.6,N/A,,Partly Cloudy,140,2013-05-23 16:55:00
11:55 AM,63.0,43.0,48,30.19,10.0,ESE,19.6,27.6,N/A,,Clear,120,2013-05-23 17:55:00
12:55 PM,64.0,44.1,48,30.17,10.0,SE,17.3,28.8,N/A,,Clear,130,2013-05-23 18:55:00
1:55 PM,66.9,43.0,42,30.15,10.0,SE,21.9,31.1,N/A,,Clear,130,2013-05-23 19:55:00
2:55 PM,66.9,43.0,42,30.13,10.0,SE,18.4,33.4,N/A,,Clear,130,2013-05-23 20:55:00
3:55 PM,66.9,44.1,44,30.10,10.0,SE,24.2,33.4,N/A,,Scattered Clouds,130,2013-05-23 21:55:00
4:55 PM,68.0,43.0,40,30.10,10.0,SE,24.2,33.4,N/A,,Clear,140,2013-05-23 22:55:00
5:55 PM,66.9,44.1,44,30.10,10.0,SE,20.7,29.9,N/A,,Clear,130,2013-05-23 23:55:00
6:55 PM,64.0,44.1,48,30.09,10.0,ESE,18.4,-,N/A,,Clear,120,2013-05-24 00:55:00
7:55 PM,61.0,45.0,56,30.07,10.0,ESE,16.1,-,N/A,,Clear,110,2013-05-24 01:55:00
8:55 PM,57.9,46.0,65,30.07,10.0,ESE,17.3,-,N/A,,Clear,110,2013-05-24 02:55:00
9:55 PM,57.0,46.0,67,30.08,10.0,ESE,16.1,-,N/A,,Clear,120,2013-05-24 03:55:00
10:55 PM,57.0,45.0,64,30.07,10.0,SE,17.3,24.2,N/A,,Clear,130,2013-05-24 04:55:00
11:55 PM,55.0,45.0,69,30.06,10.0,SE,15.0,21.9,N/A,,Clear,130,2013-05-24 05:55:00